Ludington, MI

6:17 PM EDT on October 22, 2019 (GMT -0400)
Mason County

Weather History for KLDM - August, 2019

Change the Weather History Date:

Wednesday, August 21, 2019

  Actual Average Record
Temperature  
Mean Temperature 66 °F -  
Max Temperature 76 °F 77 °F 91 °F (1955)
Min Temperature 57 °F 54 °F 37 °F (2004)
Cooling Degree Days 2    
Growing Degree Days 16 (Base 50)    
Moisture  
Dew Point 65 °F    
Average Humidity 86    
Maximum Humidity 98    
Minimum Humidity 57    
Precipitation  
Precipitation 0.00 in - - ()
Sea Level Pressure  
Sea Level Pressure 29.92 in    
Wind  
Wind Speed 3 mph (NW)    
Max Wind Speed 14 mph    
Max Gust Speed 21 mph    
Visibility 7 miles    
Events Fog    
Averages and records for this station are not official NWS values.
T = Trace of Precipitation, MM = Missing Value Source: NWS Daily Summary

Daily Weather History Graph

Daily Weather History Graph

Search for Another Location

Airport or City:

Astronomy

Aug. 21, 2019 Rise Set
Actual Time 6:56 AM EDT 8:40 PM EDT
Civil Twilight 6:25 AM EDT 9:11 PM EDT
Nautical Twilight 5:48 AM EDT 9:48 PM EDT
Astronomical Twilight 5:07 AM EDT 10:28 PM EDT
Moon 11:45 PM EDT (8/21) 12:42 PM EDT (8/21)
Length of Visible Light 14h 45m
Length of Day
13h 44m
Waning Gibbous, 69% of the Moon is Illuminated
Aug 21
Waning Gibbous
Aug 23
Last Quarter
Aug 30
New
Sep 5
First Quarter
Sep 14
Full

Hourly Weather History & Observations

Time (EDT) Temp. Dew Point Humidity Pressure Visibility Wind Dir Wind Speed Gust Speed Precip Events Conditions
12:16 AM 66.6 °F 65.8 °F 98% 29.92 in 0.2 mi Calm Calm - N/A Fog Fog
12:35 AM 66.7 °F 65.8 °F 97% 29.93 in 0.2 mi Calm Calm - N/A Fog Fog
12:36 AM 66.7 °F 66.0 °F 98% 29.93 in 0.2 mi Calm Calm - N/A Fog Fog
12:55 AM 66.9 °F 66.2 °F 98% 29.93 in 0.2 mi Calm Calm - N/A Fog Fog
1:19 AM 66.7 °F 66.0 °F 98% 29.93 in 0.2 mi Calm Calm - N/A Fog Fog
1:37 AM 65.1 °F 64.2 °F 97% 29.93 in 0.2 mi Calm Calm - N/A Fog Fog
1:55 AM 64.6 °F 63.9 °F 98% 29.93 in 0.2 mi Calm Calm - N/A Fog Fog
1:56 AM 64.6 °F 63.9 °F 98% 29.93 in 0.2 mi Calm Calm - N/A Fog Fog
2:15 AM 65.5 °F 64.8 °F 98% 29.93 in 0.5 mi Calm Calm - N/A Fog Fog
2:16 AM 65.1 °F 64.4 °F 98% 29.93 in 0.5 mi Calm Calm - N/A Fog Fog
2:35 AM 68.9 °F 68.2 °F 98% 29.93 in 4.0 mi SW 3.5 mph - N/A   Scattered Clouds
2:58 AM 70.5 °F 69.8 °F 98% 29.93 in 3.0 mi SW 6.9 mph - N/A   Overcast
3:16 AM 70.7 °F 70.0 °F 98% 29.92 in 2.5 mi SW 4.6 mph - N/A   Overcast
3:35 AM 70.7 °F 70.0 °F 98% 29.92 in 3.0 mi SW 4.6 mph - N/A   Overcast
3:36 AM 70.9 °F 70.0 °F 97% 29.92 in 3.0 mi SSW 4.6 mph - N/A   Overcast
3:55 AM 70.9 °F 70.2 °F 98% 29.92 in 3.0 mi West 3.5 mph - N/A   Overcast
3:56 AM 70.9 °F 70.2 °F 98% 29.92 in 3.0 mi Calm Calm - N/A   Overcast
4:19 AM 71.1 °F 70.2 °F 97% 29.92 in 7.0 mi SW 5.8 mph - N/A   Overcast
4:37 AM 70.7 °F 70.0 °F 98% 29.91 in 5.0 mi WSW 4.6 mph - N/A   Mostly Cloudy
4:55 AM 70.9 °F 70.0 °F 97% 29.90 in 5.0 mi WSW 3.5 mph - N/A   Mostly Cloudy
4:56 AM 70.9 °F 70.0 °F 97% 29.90 in 5.0 mi Calm Calm - N/A   Mostly Cloudy
5:15 AM 70.3 °F 69.8 °F 98% 29.90 in 5.0 mi Calm Calm - N/A   Scattered Clouds
5:16 AM 70.3 °F 69.6 °F 98% 29.90 in 5.0 mi Calm Calm - N/A   Scattered Clouds
5:35 AM 69.6 °F 68.9 °F 98% 29.90 in 7.0 mi Calm Calm - N/A   Clear
5:57 AM 69.1 °F 68.4 °F 98% 29.89 in 5.0 mi Calm Calm - N/A   Clear
6:16 AM 67.6 °F 66.7 °F 97% 29.89 in 0.2 mi Calm Calm - N/A Fog Fog
6:35 AM 66.0 °F 65.1 °F 97% 29.89 in 0.2 mi Calm Calm - N/A Fog Fog
6:36 AM 65.5 °F 64.6 °F 97% 29.89 in 0.2 mi Calm Calm - N/A Fog Fog
6:55 AM 64.9 °F 64.2 °F 98% 29.88 in 0.2 mi Calm Calm - N/A Fog Fog
6:56 AM 65.1 °F 64.6 °F 98% 29.88 in 0.2 mi Calm Calm - N/A Fog Fog
7:19 AM 64.4 °F 63.7 °F 98% 29.88 in 0.2 mi Calm Calm - N/A Fog Fog
7:37 AM 65.3 °F 64.6 °F 98% 29.88 in 0.2 mi Calm Calm - N/A Fog Fog
7:55 AM 66.7 °F 66.0 °F 98% 29.87 in 5.0 mi Calm Calm - N/A   Scattered Clouds
8:15 AM 70.2 °F 69.4 °F 98% 29.87 in 10.0 mi West 3.5 mph - N/A   Clear
8:16 AM 70.2 °F 69.4 °F 98% 29.87 in 10.0 mi West 3.5 mph - N/A   Clear
8:35 AM 71.2 °F 70.3 °F 97% 29.89 in 10.0 mi West 4.6 mph - N/A   Clear
8:39 AM 71.6 °F 70.5 °F 96% 29.89 in 10.0 mi West 5.8 mph - N/A   Scattered Clouds
8:58 AM 71.2 °F 69.4 °F 94% 29.91 in 10.0 mi West 4.6 mph - N/A   Mostly Cloudy
9:16 AM 70.7 °F 68.2 °F 92% 29.92 in 10.0 mi West 5.8 mph - N/A   Mostly Cloudy
9:35 AM 70.7 °F 67.8 °F 91% 29.92 in 10.0 mi WNW 6.9 mph - N/A   Scattered Clouds
9:55 AM 71.6 °F 68.0 °F 88% 29.91 in 10.0 mi NW 6.9 mph - N/A   Scattered Clouds
9:56 AM 71.6 °F 68.0 °F 88% 29.91 in 10.0 mi NW 5.8 mph - N/A   Scattered Clouds
10:19 AM 73.4 °F 67.3 °F 81% 29.91 in 10.0 mi WNW 5.8 mph - N/A   Clear
10:37 AM 74.7 °F 67.5 °F 78% 29.91 in 10.0 mi WSW 5.8 mph - N/A   Scattered Clouds
10:55 AM 75.4 °F 68.4 °F 79% 29.91 in 10.0 mi West 3.5 mph - N/A   Scattered Clouds
11:15 AM 75.4 °F 68.7 °F 80% 29.92 in 10.0 mi West 8.1 mph - N/A   Scattered Clouds
11:40 AM 73.9 °F 68.0 °F 82% 29.92 in 10.0 mi NNW 6.9 mph - N/A   Mostly Cloudy
11:58 AM 75.4 °F 68.2 °F 78% 29.91 in 10.0 mi WNW 6.9 mph - N/A   Mostly Cloudy
12:16 PM 75.6 °F 67.8 °F 77% 29.92 in 10.0 mi WNW 3.5 mph - N/A   Scattered Clouds
12:35 PM 76.5 °F 67.6 °F 74% 29.92 in 10.0 mi NW 4.6 mph - N/A   Scattered Clouds
12:55 PM 75.2 °F 67.3 °F 76% 29.93 in 10.0 mi NNW 6.9 mph - N/A   Mostly Cloudy
1:15 PM 76.1 °F 67.1 °F 74% 29.92 in 10.0 mi WNW 6.9 mph - N/A   Mostly Cloudy
1:20 PM 76.3 °F 66.4 °F 71% 29.92 in 10.0 mi NNW 6.9 mph - N/A   Mostly Cloudy
1:38 PM 74.5 °F 66.4 °F 76% 29.93 in 10.0 mi NNW 8.1 mph - N/A   Overcast
1:56 PM 74.8 °F 66.4 °F 75% 29.93 in 10.0 mi NW 8.1 mph - N/A   Overcast
2:15 PM 74.8 °F 65.8 °F 73% 29.93 in 10.0 mi NW 9.2 mph - N/A   Scattered Clouds
2:35 PM 74.3 °F 65.5 °F 74% 29.93 in 10.0 mi NNW 10.4 mph - N/A   Mostly Cloudy
2:59 PM 73.2 °F 65.1 °F 76% 29.93 in 10.0 mi NNW 13.8 mph 18.4 mph N/A   Scattered Clouds
3:17 PM 73.9 °F 65.3 °F 74% 29.93 in 10.0 mi NW 11.5 mph 16.1 mph N/A   Scattered Clouds
3:35 PM 73.8 °F 64.2 °F 72% 29.94 in 10.0 mi NNW 13.8 mph 19.6 mph N/A   Scattered Clouds
3:36 PM 73.6 °F 64.2 °F 72% 29.94 in 10.0 mi NNW 13.8 mph 19.6 mph N/A   Scattered Clouds
3:55 PM 72.7 °F 63.9 °F 74% 29.94 in 10.0 mi North 13.8 mph 20.7 mph N/A   Mostly Cloudy
4:15 PM 72.1 °F 63.7 °F 75% 29.94 in 10.0 mi North 12.7 mph 17.3 mph N/A   Mostly Cloudy
4:38 PM 72.1 °F 61.9 °F 70% 29.94 in 10.0 mi North 11.5 mph - N/A   Scattered Clouds
4:56 PM 72.5 °F 62.4 °F 71% 29.94 in 10.0 mi NNE 4.6 mph - N/A   Clear
5:15 PM 73.4 °F 61.7 °F 67% 29.95 in 10.0 mi North 5.8 mph - N/A   Clear
5:16 PM 73.6 °F 61.5 °F 66% 29.95 in 10.0 mi North 5.8 mph - N/A   Clear
5:35 PM 74.1 °F 60.4 °F 62% 29.95 in 10.0 mi North 4.6 mph - N/A   Clear
5:36 PM 74.1 °F 60.6 °F 63% 29.95 in 10.0 mi North 5.8 mph - N/A   Clear
5:59 PM 73.8 °F 59.4 °F 61% 29.95 in 10.0 mi NNW 3.5 mph - N/A   Clear
6:17 PM 74.3 °F 58.3 °F 57% 29.94 in 10.0 mi NNW 3.5 mph - N/A   Clear
6:35 PM 74.3 °F 58.3 °F 57% 29.94 in 10.0 mi NNW 6.9 mph - N/A   Clear
6:36 PM 74.3 °F 58.1 °F 57% 29.93 in 10.0 mi NNW 6.9 mph - N/A   Clear
6:55 PM 73.8 °F 58.8 °F 59% 29.93 in 10.0 mi North 3.5 mph - N/A   Clear
6:56 PM 73.8 °F 59.0 °F 60% 29.93 in 10.0 mi Calm Calm - N/A   Clear
7:15 PM 71.8 °F 58.6 °F 63% 29.92 in 10.0 mi Calm Calm - N/A   Clear
7:37 PM 70.0 °F 58.5 °F 67% 29.92 in 10.0 mi Calm Calm - N/A   Clear
7:56 PM 68.4 °F 59.4 °F 73% 29.92 in 10.0 mi Calm Calm - N/A   Clear
8:15 PM 67.5 °F 59.5 °F 76% 29.92 in 10.0 mi Calm Calm - N/A   Clear
8:16 PM 67.3 °F 59.5 °F 76% 29.92 in 10.0 mi Calm Calm - N/A   Clear
8:35 PM 64.9 °F 59.9 °F 84% 29.92 in 10.0 mi Calm Calm - N/A   Clear
8:36 PM 64.9 °F 59.9 °F 84% 29.92 in 10.0 mi Calm Calm - N/A   Clear
8:59 PM 63.7 °F 60.1 °F 88% 29.92 in 10.0 mi Calm Calm - N/A   Clear
9:17 PM 63.5 °F 59.9 °F 88% 29.92 in 7.0 mi Calm Calm - N/A   Clear
9:35 PM 60.6 °F 59.0 °F 94% 29.93 in 10.0 mi Calm Calm - N/A   Clear
9:36 PM 60.8 °F 59.2 °F 94% 29.93 in 10.0 mi Calm Calm - N/A   Clear
9:55 PM 59.9 °F 58.6 °F 96% 29.94 in 10.0 mi Calm Calm - N/A   Clear
9:56 PM 59.7 °F 58.5 °F 96% 29.94 in 10.0 mi Calm Calm - N/A   Clear
10:15 PM 59.7 °F 59.0 °F 97% 29.95 in 10.0 mi Calm Calm - N/A   Clear
10:38 PM 58.1 °F 57.4 °F 97% 29.95 in 10.0 mi Calm Calm - N/A   Clear
10:56 PM 57.9 °F 57.2 °F 97% 29.96 in 10.0 mi Calm Calm - N/A   Clear
11:15 PM 58.5 °F 57.7 °F 97% 29.96 in 10.0 mi Calm Calm - N/A   Clear
11:35 PM 62.6 °F 58.5 °F 86% 29.97 in 10.0 mi Calm Calm - N/A   Clear
11:36 PM 62.6 °F 58.5 °F 86% 29.97 in 10.0 mi Calm Calm - N/A   Clear
11:59 PM 62.2 °F 57.6 °F 85% 29.98 in 10.0 mi NNE 3.5 mph - N/A   Clear